User: anonymous   Login
Location: Goheenville
(40.9070°N, 79.3720°W)
Time: 18:03:03
(UTC-04:00)
Language:

Meteor 2-10 Rocket - Orbit

View from above orbital plane
View from above orbital plane
View from above satellite
View from above satellite

Ground track
Ground track

The orbit data is extracted from the following two-line orbital elements,

1 14453U 83109B   16147.90270231 +.00000037 +00000-0 +91833-5 0  9990
2 14453 081.1647 134.8977 0106178 101.0479 260.2663 14.24646981692456
Epoch (UTC): 26 May 2016 21:39:53
Eccentricity: 0.0106178
inclination: 81.1647°
perigee height: 733 km
apogee height: 886 km
right ascension of ascending node: 134.8977°
argument of perigee: 101.0479°
revolutions per day: 14.24646981
mean anomaly at epoch: 260.2663°
orbit number at epoch: 69245

The dashed part of the orbit path shows where the satellite is in the earth's shadow,  

DLR